INTELSAT 30 (IS-30)

Last updated on Sat Aug 15 2026 00:02:59 GMT+0000 (Coordinated Universal Time)

1 40271U 14062A 26226.47783567 -.00000166 00000+0 00000+0 0 9994 2 40271 0.0147 66.9674 0001572 325.4289 7.4604 1.00270882 7370
UTC large
Height (km)
Speed (km/s)
/
Latitude / Longitude
Inclination (degrees)
Orbital Period (minutes)
Azimuth
Elevation
Range (km)
Doppler Factor

Next 0 passes for location: London (51.5072 / 0.1276)

No passes found over London.
INTELSAT 30 (IS-30)